Starlink 31233

operational
NORAD ID: 58826 Int'l Des: 2024-017 Owner: SPXS Country: US Constellation: starlink
LEOCIRCULAR

About Starlink 31233

Description loading...

Live Position

Loading 3D Globe...

Upcoming Passes

Altitude History

Altitude vs Time

uPlot chart will show altitude changes over time

Two-Line Element Set

1 58826U 24017A 25304.80188605 -.00000959 00000-0 -20284-4 0 9998
2 58826 53.1601 82.9434 0001377 79.9963 280.1193 15.30178582100441
Epoch: Oct 31, 2025 • Age: 24 hours

Current Status

Altitude 479.1 km
Velocity 7.63 km/s
Sub-Earth Point -12.74°S, 67.58°W
Launch Date Jan 24, 2024
Age 1.7 years
Type internet

Technical Details

Classification Payload
Mass 730.00 kg
Dry Mass 700.00 kg
Total Mass 730.00 kg
Length 0.30 m
Diameter 4.10 m
Span 29.00 m
Shape Box + pan
Manufacturer SPXS
Bus Type Starlink V2M
Phase Status In Orbit
Owner/State SPXS/US

Large Constellations

Loading constellations...